User: anonymous   Login
Location: Writing-on-Stone Provincial Park
(49.0825°N, 111.6163°W)
Time: 05:39:52
(UTC-06:00)
Language:

BREEZE-M DEB (TANK) - Orbit

View from above orbital plane
View from above orbital plane
View from above satellite
View from above satellite

Ground track
Ground track

The orbit data is extracted from the following two-line orbital elements,

1 29649U 06056B   15106.98970198  .00006760  00000-0  18943-2 0  9997
2 29649 049.4749 091.1442 5382304 028.6302 352.5517 04.96330054148281
Epoch (UTC): 16 April 2015 23:45:10
Eccentricity: 0.5382304
inclination: 49.4749°
perigee height: 325 km
apogee height: 15953 km
right ascension of ascending node: 91.1442°
argument of perigee: 28.6302°
revolutions per day: 4.96330054
mean anomaly at epoch: 352.5517°
orbit number at epoch: 14828

The dashed part of the orbit path shows where the satellite is in the earth's shadow,  

DLR